Weather in Port Blair

India     11°38′32″N   92°43′45″E
temp.,
°C
wind,
m/s
gust,
m/s
humid.,
%
clouds,
%
prec.,
mm/h
press.,
hPa
HPBL,
m
24 september, fri
fri2423:30+26sw4783100 0.5 1010397
02:30+26sw3784100 0.0 1008459
05:30+26sw478635 0.2 1009343
08:30+29sw577698 1.4 1011918
11:30+30sw576993 2.1 1009958
14:30+29sw577093 0.7 1007906
17:30+26sw478481 3.9 1008385
20:30+26sw598398 3.1 1010528
25 september, sat
sat2523:30+26sw5986100 4.1 1008513
02:30+26sw5984100 0.1 1006640
05:30+26sw588677 0.7 1007563
08:30+28sw687863 2.6 1009908
11:30+29wsw687253 3.2 10081007
14:30+29wsw687399 0.1 10051026
17:30+27wsw588455 0.8 1006613
20:30+26wsw4888100 2.3 1008444
26 september, sun
sun2623:30+26wsw4886100 6.4 1006431
02:30+25w3588100 7.5 1005263
05:30+24sw3493100 14.2 1006268
08:30+26ssw5786100 0.9 1008503
11:30+26sw4684100 0.9 1006499
14:30+26sw3684100 0.0 1004495
17:30+26ssw5786100 0.3 1006482
20:30+25sw489098 4.0 1007386
27 september, mon
mon2723:30+25sw3790100 7.7 1006295
02:30+26sw4787100 4.4 1005360
05:30+26wsw248799 7.2 1006188
08:30+28ssw237699 2.3 1008661
11:30+29s446799 2.4 10061000
14:30+28ssw5573100 1.0 1004767
17:30+26ssw4683100 3.6 1006346
20:30+26ssw3585100 0.9 1008272
28 september, tue
tue2823:30+26ssw358698 1.0 1007347
02:30+26s3486100 0.3 1005324
05:30+26sse348599 1.2 1006292
08:30+28se447461 0.0 1008718
11:30+29se557369 0.9 1007864
14:30+29se5571100 1.3 1005899
17:30+27se4682100 1.4 1006471
20:30+26se4785100 1.1 1008457